Weather History for Andravida, Greece

Change the Weather History Date:

Thursday, October 18, 2012

  Actual Average Record
Temperature  
Mean Temperature 68 °F -  
Max Temperature 78 °F 68 °F 78 °F (2001)
Min Temperature 58 °F 50 °F 39 °F (2011)
Cooling Degree Days 3    
Growing Degree Days 18 (Base 50)    
Moisture  
Dew Point 62 °F    
Average Humidity 78    
Maximum Humidity 94    
Minimum Humidity 49    
Precipitation  
Precipitation 0.00 in - - ()
Sea Level Pressure  
Sea Level Pressure 30.11 in    
Wind  
Wind Speed 1 mph ()    
Max Wind Speed 7 mph    
Max Gust Speed -    
Visibility 5.7 miles    
Events      
Averages and records for this station are not official NWS values.
T = Trace of Precipitation, MM = Missing Value Source: Averaged Metar Reports

Daily Weather History Graph

Daily Weather History Graph

Search for Another Location

Airport:

Trip Planner

Search our weather history database for the weather conditions in past years. The results will help you decide how hot, cold, wet, or windy it might be!

Date:

Astronomy

Oct. 18, 2012 Rise Set
Actual Time 7:46 AM EEST 6:52 PM EEST
Civil Twilight 7:19 AM EEST 7:19 PM EEST
Nautical Twilight 6:49 AM EEST 7:49 PM EEST
Astronomical Twilight 6:18 AM EEST 8:20 PM EEST
Moon 11:04 AM EEST (10/18) 9:11 PM EEST (10/18)
Length of Visible Light 11h 59m
Length of Day
11h 06m
Waxing Crescent, 12% of the Moon is Illuminated
Oct 18
Waxing Crescent
Oct 22
First Quarter
Oct 29
Full
Nov 7
Last Quarter
Nov 14
New

Hourly Weather History & Observations

Time (EEST) Temp. Dew Point Humidity Pressure Visibility Wind Dir Wind Speed Gust Speed Precip Events Conditions
12:20 AM 66.2 °F 62.6 °F 88% 30.12 in 6.2 mi Calm Calm - N/A   Partly Cloudy
1:50 AM 62.6 °F 60.8 °F 94% 30.12 in - Calm Calm - N/A   Clear
2:50 AM 62.6 °F 59.0 °F 88% 30.12 in - Calm Calm - N/A   Clear
3:00 AM 62 °F 60 °F 90% 30.14 in 6 mi Calm Calm - -  
4:50 AM 60.8 °F 59.0 °F 94% 30.12 in - Calm Calm - N/A   Clear
5:50 AM 60.8 °F 59.0 °F 94% 30.09 in - Calm Calm - N/A   Clear
6:20 AM 60.8 °F 59.0 °F 94% 30.09 in - Calm Calm - N/A   Clear
6:50 AM 60.8 °F 59.0 °F 94% 30.09 in - Calm Calm - N/A   Clear
7:20 AM 60.8 °F 59.0 °F 94% 30.12 in 5.0 mi Calm Calm - N/A   Partly Cloudy
7:50 AM 59.0 °F 57.2 °F 94% 30.12 in 3.7 mi Calm Calm - N/A   Unknown
8:20 AM 59.0 °F 57.2 °F 94% 30.12 in 0.9 mi Calm Calm - N/A   Mist
8:50 AM 64.4 °F 62.6 °F 94% 30.12 in 5.6 mi Calm Calm - N/A   Partly Cloudy
9:00 AM 64 °F 62 °F 92% 30.14 in 6 mi Calm Calm - -   Mist
9:20 AM 66.2 °F 64.4 °F 94% 30.12 in - Calm Calm - N/A   Clear
9:50 AM 69.8 °F 64.4 °F 83% 30.12 in - Calm Calm - N/A   Clear
10:20 AM 69.8 °F 64.4 °F 83% 30.12 in - Calm Calm - N/A   Clear
11:20 AM 73.4 °F 62.6 °F 69% 30.15 in - North 6.9 mph - N/A   Clear
11:50 AM 77.0 °F 64.4 °F 65% 30.12 in - North 6.9 mph - N/A   Clear
12:20 PM 77.0 °F 64.4 °F 65% 30.12 in - North 6.9 mph - N/A   Clear
12:50 PM 77.0 °F 62.6 °F 61% 30.12 in - Calm Calm - N/A   Clear
1:20 PM 77.0 °F 62.6 °F 61% 30.12 in - Calm Calm - N/A   Clear
1:50 PM 78.8 °F 62.6 °F 57% 30.12 in - NW 6.9 mph - N/A   Clear
2:20 PM 78.8 °F 62.6 °F 57% 30.12 in - NW 6.9 mph - N/A   Clear
2:50 PM 78.8 °F 62.6 °F 57% 30.09 in 6.2 mi NNW 6.9 mph - N/A   Partly Cloudy
3:00 PM 78 °F 62 °F 49% 30.12 in 6 mi NNW 6.9 mph - -   Scattered Clouds
3:20 PM 78.8 °F 62.6 °F 57% 30.09 in 6.2 mi NNW 6.9 mph - N/A   Partly Cloudy
3:50 PM 78.8 °F 62.6 °F 57% 30.09 in 6.2 mi NNW 6.9 mph - N/A   Partly Cloudy
4:20 PM 78.8 °F 62.6 °F 57% 30.09 in 6.2 mi NNW 6.9 mph - N/A   Partly Cloudy
4:50 PM 78.8 °F 62.6 °F 57% 30.09 in 6.2 mi NW 4.6 mph - N/A   Partly Cloudy
5:20 PM 78.8 °F 62.6 °F 57% 30.09 in 6.2 mi NW 4.6 mph - N/A   Partly Cloudy
5:50 PM 77.0 °F 62.6 °F 61% 30.06 in 6.2 mi NW 4.6 mph - N/A   Partly Cloudy
6:20 PM 77.0 °F 62.6 °F 61% 30.06 in 6.2 mi NW 4.6 mph - N/A   Partly Cloudy
6:50 PM 73.4 °F 64.4 °F 73% 30.09 in 6.2 mi Calm Calm - N/A   Partly Cloudy
7:20 PM 73.4 °F 64.4 °F 73% 30.09 in 6.2 mi Calm Calm - N/A   Partly Cloudy
7:50 PM 69.8 °F 64.4 °F 83% 30.09 in 6.2 mi Calm Calm - N/A   Partly Cloudy
8:20 PM 69.8 °F 64.4 °F 83% 30.09 in 6.2 mi Calm Calm - N/A   Partly Cloudy
8:50 PM 66.2 °F 62.6 °F 88% 30.09 in 6.2 mi Calm Calm - N/A   Partly Cloudy
9:00 PM 67 °F 63 °F 83% 30.11 in 6 mi Calm Calm - -   Scattered Clouds
9:20 PM 66.2 °F 62.6 °F 88% 30.09 in 6.2 mi Calm Calm - N/A   Partly Cloudy
9:50 PM 64.4 °F 62.6 °F 94% 30.09 in - Calm Calm - N/A   Clear
10:20 PM 64.4 °F 62.6 °F 94% 30.09 in - Calm Calm - N/A   Clear
10:50 PM 64.4 °F 60.8 °F 88% 30.09 in - Calm Calm - N/A   Clear
11:20 PM 64.4 °F 60.8 °F 88% 30.09 in - Calm Calm - N/A   Clear
11:50 PM 64.4 °F 60.8 °F 88% 30.09 in - Calm Calm - N/A   Clear